DW4360 Weather Reports


time (UTC)temp
F
wind
direction
speed
knots
gust
knots
rain 1hr
in
rain 24hr
in
rain mn
in
humidity
%
barometer
mb
20260831015319 71 338 7.8 0.0 0.00 0.00 0.00 55 1014.9
20260831014318 71 321 5.2 0.0 0.00 0.00 0.00 54 1015.0
20260831011315 73 317 0.0 0.0 0.00 0.00 0.00 50 1015.3
20260831010314 74 306 0.0 0.0 0.00 0.00 0.00 49 1015.3
20260831005313 75 306 4.3 0.0 0.00 0.00 0.00 48 1015.4
20260831004312 76 321 6.1 0.0 0.00 0.00 0.00 46 1015.5
20260831003311 78 317 1.7 0.0 0.00 0.00 0.00 44 1015.6
20260831002310 78 5 0.0 0.0 0.00 0.00 0.00 43 1015.7
20260831001309 78 323 2.6 0.0 0.00 0.00 0.00 42 1015.7
20260830235307 78 321 0.0 0.0 0.00 0.00 0.00 42 1015.8
20260830233305 76 326 0.0 0.0 0.00 0.00 0.00 46 1016.0
20260830232306 76 323 3.5 0.0 0.00 0.00 0.00 45 1016.2
20260830231303 76 323 3.5 0.0 0.00 0.00 0.00 46 1016.2
20260830230302 75 308 0.0 0.0 0.00 0.00 0.00 47 1016.3
20260830225305 74 299 3.5 0.0 0.00 0.00 0.00 48 1016.5
20260830224300 74 317 3.5 0.0 0.00 0.00 0.00 48 1016.7
20260830223259 74 317 0.0 0.0 0.00 0.00 0.00 47 1016.9
20260830222258 74 329 0.0 0.0 0.00 0.00 0.00 46 1017.1
20260830214254 76 88 0.0 0.0 0.00 0.00 0.00 43 1017.6
20260830213253 77 307 0.0 0.0 0.00 0.00 0.00 44 1017.8
20260830212252 77 319 3.5 0.0 0.00 0.00 0.00 44 1017.8
20260830211251 76 104 0.0 0.0 0.00 0.00 0.00 44 1017.9
20260830210250 76 319 0.0 0.0 0.00 0.00 0.00 46 1018.1
20260830205249 75 244 0.0 0.0 0.00 0.00 0.00 47 1018.1
20260830204248 74 328 0.0 0.0 0.00 0.00 0.00 48 1018.2
20260830203247 73 360 0.0 0.0 0.00 0.00 0.00 49 1018.4
20260830202246 72 331 0.0 0.0 0.00 0.00 0.00 50 1018.6
20260830195243 70 317 0.0 0.0 0.00 0.00 0.00 54 1018.8
20260830194242 70 318 0.9 0.0 0.00 0.00 0.00 53 1018.8
20260830193240 70 122 0.0 0.0 0.00 0.00 0.00 54 1018.9
20260830191238 68 319 0.0 0.0 0.00 0.00 0.00 55 1019.2
20260830185236 67 323 2.6 0.0 0.00 0.00 0.00 59 1019.4
20260830184235 66 113 0.0 0.0 0.00 0.00 0.00 58 1019.5
20260830183234 66 326 1.7 0.0 0.00 0.00 0.00 58 1019.5
20260830182233 66 321 0.0 0.0 0.00 0.00 0.00 62 1019.5
20260830181233 66 331 0.0 0.0 0.00 0.00 0.00 62 1019.6
20260830180232 67 338 0.0 0.0 0.00 0.00 0.00 60 1019.6
20260830175231 68 109 0.0 0.0 0.00 0.00 0.00 59 1019.5
20260830174229 68 59 0.0 0.0 0.00 0.00 0.00 61 1019.5
20260830172227 65 112 0.0 0.0 0.00 0.00 0.00 70 1019.5
20260830170225 61 319 0.0 0.0 0.00 0.00 0.00 77 1019.6
20260830165225 60 319 0.0 0.0 0.00 0.00 0.00 81 1019.5
20260830163222 58 319 0.0 0.0 0.00 0.00 0.00 84 1019.6
20260830162221 57 319 0.0 0.0 0.00 0.00 0.00 85 1019.7
20260830161220 56 318 0.0 0.0 0.00 0.00 0.00 86 1019.8
20260830160219 56 318 0.0 0.0 0.00 0.00 0.00 88 1019.9
20260830154217 54 318 0.0 0.0 0.00 0.00 0.00 89 1019.8
20260830152215 53 319 0.0 0.0 0.00 0.00 0.00 89 1020.0
20260830151214 53 318 0.0 0.0 0.00 0.00 0.00 89 1020.0
20260830150213 53 318 0.0 0.0 0.00 0.00 0.00 88 1020.1
20260830145212 52 318 0.0 0.0 0.00 0.00 0.00 88 1020.1
20260830144211 52 318 0.0 0.0 0.00 0.00 0.00 88 1020.0
20260830143210 52 318 0.0 0.0 0.00 0.00 0.00 88 1020.1
20260830142209 52 318 0.0 0.0 0.00 0.00 0.00 87 1020.0
20260830141208 52 318 0.0 0.0 0.00 0.00 0.00 87 1020.0
20260830140207 52 318 0.0 0.0 0.00 0.00 0.00 87 1020.0
20260830135206 52 318 0.0 0.0 0.00 0.00 0.00 87 1019.9
20260830134205 52 318 0.0 0.0 0.00 0.00 0.00 87 1019.8
20260830133204 52 318 0.0 0.0 0.00 0.00 0.00 88 1019.8
20260830132203 52 318 0.0 0.0 0.00 0.00 0.00 88 1019.9
20260830131202 52 318 0.0 0.0 0.00 0.00 0.00 88 1019.8
20260830130201 52 318 0.0 0.0 0.00 0.00 0.00 88 1019.7
20260830125200 52 318 0.0 0.0 0.00 0.00 0.00 88 1019.7
20260830124159 52 318 0.0 0.0 0.00 0.00 0.00 87 1019.6
20260830123158 52 318 0.0 0.0 0.00 0.00 0.00 87 1019.5
20260830122157 52 318 0.0 0.0 0.00 0.00 0.00 87 1019.5
20260830121156 52 318 0.0 0.0 0.00 0.00 0.00 87 1019.5
20260830120155 52 318 0.0 0.0 0.00 0.00 0.00 87 1019.4
20260830114153 53 318 0.0 0.0 0.00 0.00 0.00 86 1019.5
20260830113152 53 318 0.0 0.0 0.00 0.00 0.00 86 1019.5
20260830112151 53 318 0.0 0.0 0.00 0.00 0.00 86 1019.4
20260830111150 53 318 0.0 0.0 0.00 0.00 0.00 86 1019.3
20260830110149 53 318 0.0 0.0 0.00 0.00 0.00 86 1019.3
20260830105148 53 318 0.0 0.0 0.00 0.00 0.00 86 1019.3
20260830104147 53 318 0.0 0.0 0.00 0.00 0.00 86 1019.3
20260830103146 54 318 0.0 0.0 0.00 0.00 0.00 85 1019.3
20260830102145 54 318 0.0 0.0 0.00 0.00 0.00 86 1019.3
20260830101143 54 318 0.0 0.0 0.00 0.00 0.00 85 1019.2
20260830100143 54 318 0.0 0.0 0.00 0.00 0.00 85 1019.2
20260830095142 54 318 0.0 0.0 0.00 0.00 0.00 84 1019.2
20260830094141 55 318 0.0 0.0 0.00 0.00 0.00 84 1019.2
20260830092139 55 318 0.0 0.0 0.00 0.00 0.00 83 1019.2
20260830091137 55 318 0.0 0.0 0.00 0.00 0.00 82 1019.2
20260830090136 56 318 0.0 0.0 0.00 0.00 0.00 82 1019.2
20260830085135 56 318 0.0 0.0 0.00 0.00 0.00 82 1019.2
20260830084135 56 318 0.0 0.0 0.00 0.00 0.00 81 1019.3
20260830082133 57 318 0.0 0.0 0.00 0.00 0.00 80 1019.3
20260830080130 57 318 0.0 0.0 0.00 0.00 0.00 79 1019.3
20260830075129 58 318 0.0 0.0 0.00 0.00 0.00 77 1019.3
20260830074128 58 318 0.0 0.0 0.00 0.00 0.00 77 1019.3
20260830073128 58 318 0.0 0.0 0.00 0.00 0.00 76 1019.2
20260830072126 58 318 0.0 0.0 0.00 0.00 0.00 75 1019.3
20260830071125 59 318 0.0 0.0 0.00 0.00 0.00 75 1019.3
20260830070125 59 318 0.0 0.0 0.00 0.00 0.00 74 1019.2
20260830063121 60 318 0.0 0.0 0.00 0.00 0.00 71 1019.2
20260830062121 61 318 0.0 0.0 0.00 0.00 0.00 70 1019.2
20260830061119 61 318 0.0 0.0 0.00 0.00 0.00 70 1019.2
20260830060119 61 318 0.0 0.0 0.00 0.00 0.00 69 1019.2
20260830055117 62 318 0.0 0.0 0.00 0.00 0.00 68 1019.2
20260830054117 62 318 0.0 0.0 0.00 0.00 0.00 68 1019.2
20260830053116 62 318 0.0 0.0 0.00 0.00 0.00 67 1019.1
20260830052114 62 318 0.0 0.0 0.00 0.00 0.00 66 1019.0
20260830051113 63 323 0.0 0.0 0.00 0.00 0.00 65 1019.0
20260830050112 63 323 0.0 0.0 0.00 0.00 0.00 64 1018.9
20260830045111 63 323 0.0 0.0 0.00 0.00 0.00 64 1018.9
20260830044110 64 321 0.0 0.0 0.00 0.00 0.00 62 1018.8
20260830042108 64 323 0.0 0.0 0.00 0.00 0.00 60 1018.8
20260830041107 65 325 3.5 0.0 0.00 0.00 0.00 59 1018.6
20260830040106 65 320 0.0 0.0 0.00 0.00 0.00 58 1018.5
20260830035105 65 320 0.0 0.0 0.00 0.00 0.00 57 1018.3
20260830034104 66 320 0.0 0.0 0.00 0.00 0.00 56 1018.2
20260830033103 66 320 0.0 0.0 0.00 0.00 0.00 55 1018.1
20260830032102 66 318 0.0 0.0 0.00 0.00 0.00 54 1018.0
20260830030100 68 318 6.1 0.0 0.00 0.00 0.00 51 1017.9
20260830025059 68 325 4.3 0.0 0.00 0.00 0.00 50 1017.8
20260830024058 69 333 0.9 0.0 0.00 0.00 0.00 49 1017.7
20260830023057 70 325 5.2 0.0 0.00 0.00 0.00 47 1017.6
20260830022056 70 309 1.7 0.0 0.00 0.00 0.00 46 1017.6
20260830021055 71 325 1.7 0.0 0.00 0.00 0.00 46 1017.4
20260830020054 71 332 0.9 0.0 0.00 0.00 0.00 46 1017.4